Location: Marsån
(66.4167°N, 22.2833°E)
Time: 11:33:53
(UTC+00:00)

Cosmos 407 Rocket - Pass Details

Date: 24 February 2024
Orbit: 741 x 785 km, 74.0° (Epoch: 15 April)

Event Time Altitude Azimuth Distance (km) Brightness Sun altitude
Rises 17:13:44 0° 227° (SW) 3,197 7.4 -11.6°
Reaches altitude 10° 17:16:05 10° 229° (SW) 2,281 6.6 -11.9°
Maximum altitude 17:21:16 79° 316° (NW) 784 3.6 -12.4°
Drops below altitude 10° 17:26:33 10° 44° (NE) 2,320 5.6 -12.9°
Enters shadow 17:27:55 - 45° (NE) 2,850 6.1 -13.0°
